Weather History for Wright-Patt AFB, OH

Change the Weather History Date:

Tuesday, January 29, 2013

  Actual Average Record
Temperature  
Mean Temperature 56 °F -  
Max Temperature 64 °F 35 °F 64 °F (2002)
Min Temperature 48 °F 19 °F -6 °F (2014)
Degree Days  
Heating Degree Days 9    
Growing Degree Days 6 (Base 50)    
Moisture  
Dew Point 51 °F    
Average Humidity 74    
Maximum Humidity 100    
Minimum Humidity 59    
Precipitation  
Precipitation 0.00 in - - ()
Sea Level Pressure  
Sea Level Pressure 29.86 in    
Wind  
Wind Speed 14 mph (South)    
Max Wind Speed 23 mph    
Max Gust Speed 33 mph    
Visibility 9 miles    
Events Rain    
Averages and records for this station are not official NWS values.
T = Trace of Precipitation, MM = Missing Value Source: NWS Daily Summary

Daily Weather History Graph

Daily Weather History Graph

Search for Another Location

Airport:

Trip Planner

Search our weather history database for the weather conditions in past years. The results will help you decide how hot, cold, wet, or windy it might be!

Date:

Astronomy

Jan. 29, 2013 Rise Set
Actual Time 7:46 AM EST 5:52 PM EST
Civil Twilight 7:18 AM EST 6:21 PM EST
Nautical Twilight 6:45 AM EST 6:53 PM EST
Astronomical Twilight 6:13 AM EST 7:25 PM EST
Moon 8:47 PM EST (1/29) 8:43 AM EST (1/29)
Length of Visible Light 11h 03m
Length of Day
10h 05m
Waning Gibbous, 94% of the Moon is Illuminated
Jan 29
Waning Gibbous
Feb 3
Last Quarter
Feb 10
New
Feb 17
First Quarter
Feb 25
Full

Hourly Weather History & Observations

Time (EST) Temp. Dew Point Humidity Pressure Visibility Wind Dir Wind Speed Gust Speed Precip Events Conditions
12:55 AM 51.8 °F 51.8 °F 100% 30.04 in 3.0 mi South 11.5 mph - N/A   Overcast
1:55 AM 52.5 °F 52.5 °F 100% 30.04 in 4.0 mi South 10.4 mph - N/A   Overcast
2:38 AM 51.8 °F 51.8 °F 100% 30.02 in 7.0 mi South 9.2 mph - N/A   Overcast
2:55 AM 52.5 °F 52.3 °F 99% 30.02 in 7.0 mi South 8.1 mph - N/A   Overcast
3:55 AM 50.2 °F 49.8 °F 99% 30.00 in 7.0 mi SSE 6.9 mph - N/A   Overcast
4:55 AM 48.6 °F 48.4 °F 99% 29.99 in 7.0 mi SE 6.9 mph - N/A   Scattered Clouds
5:55 AM 48.4 °F 48.4 °F 100% 29.99 in 7.0 mi SSE 6.9 mph - N/A   Mostly Cloudy
6:55 AM 52.0 °F 52.0 °F 100% 29.99 in 10.0 mi SSW 12.7 mph - N/A   Overcast
7:55 AM 54.0 °F 50.0 °F 86% 29.98 in 10.0 mi South 16.1 mph - N/A   Overcast
8:55 AM 55.0 °F 49.1 °F 80% 29.96 in 10.0 mi South 13.8 mph - N/A   Overcast
9:55 AM 57.2 °F 49.6 °F 76% 29.96 in 10.0 mi South 19.6 mph 24.2 mph N/A   Overcast
10:18 AM 57.2 °F 50.0 °F 77% 29.95 in 10.0 mi SSW 17.3 mph - N/A   Mostly Cloudy
10:55 AM 58.6 °F 50.4 °F 74% 29.95 in 10.0 mi South 16.1 mph 24.2 mph N/A   Overcast
11:42 AM 60.8 °F 50.0 °F 68% 29.93 in 10.0 mi South 15.0 mph 25.3 mph N/A Rain Light Rain
11:51 AM 60.8 °F 50.0 °F 68% 29.92 in 10.0 mi South 17.3 mph - N/A   Mostly Cloudy
11:55 AM 60.1 °F 50.4 °F 70% 29.91 in 10.0 mi South 19.6 mph 24.2 mph 0.00 in   Mostly Cloudy
11:58 AM 60.8 °F 50.0 °F 68% 29.92 in 10.0 mi South 19.6 mph 24.2 mph N/A   Overcast
12:07 PM 60.8 °F 50.0 °F 68% 29.92 in 10.0 mi South 20.7 mph 26.5 mph N/A   Mostly Cloudy
12:13 PM 60.8 °F 50.0 °F 68% 29.91 in 10.0 mi South 19.6 mph 28.8 mph N/A   Mostly Cloudy
12:28 PM 60.8 °F 50.0 °F 68% 29.90 in 10.0 mi South 20.7 mph 26.5 mph N/A Rain Light Rain
12:38 PM 60.8 °F 51.8 °F 72% 29.90 in 10.0 mi South 18.4 mph - N/A   Mostly Cloudy
12:55 PM 62.6 °F 51.3 °F 66% 29.89 in 10.0 mi South 17.3 mph 25.3 mph 0.00 in   Overcast
1:15 PM 64.4 °F 51.8 °F 64% 29.88 in 10.0 mi South 20.7 mph 27.6 mph N/A   Mostly Cloudy
1:55 PM 63.0 °F 50.0 °F 63% 29.87 in 10.0 mi South 20.7 mph 29.9 mph N/A   Overcast
2:52 PM 64.4 °F 50.0 °F 59% 29.84 in 10.0 mi SSW 20.7 mph - N/A   Overcast
2:55 PM 64.4 °F 50.0 °F 59% 29.84 in 10.0 mi SSW 21.9 mph 27.6 mph N/A   Overcast
3:03 PM 64.4 °F 50.0 °F 59% 29.85 in 7.0 mi South 20.7 mph 27.6 mph N/A   Overcast
3:55 PM 63.9 °F 50.0 °F 61% 29.83 in 10.0 mi South 15.0 mph 26.5 mph N/A   Mostly Cloudy
4:55 PM 63.0 °F 50.0 °F 63% 29.81 in 10.0 mi South 18.4 mph - N/A   Overcast
5:55 PM 61.2 °F 50.2 °F 67% 29.80 in 10.0 mi South 8.1 mph - N/A   Mostly Cloudy
6:17 PM 60.8 °F 50.0 °F 68% 29.79 in 10.0 mi South 9.2 mph - N/A   Mostly Cloudy
6:23 PM 60.8 °F 50.0 °F 68% 29.79 in 10.0 mi South 8.1 mph - N/A   Mostly Cloudy
6:55 PM 60.6 °F 50.5 °F 69% 29.78 in 10.0 mi SSE 10.4 mph - N/A   Overcast
7:55 PM 62.6 °F 51.1 °F 66% 29.76 in 10.0 mi South 13.8 mph - N/A   Overcast
8:55 PM 62.4 °F 51.1 °F 66% 29.72 in 10.0 mi SSE 12.7 mph - N/A   Overcast
9:29 PM 62.6 °F 51.8 °F 68% 29.70 in 10.0 mi SSE 12.7 mph 23.0 mph N/A   Overcast
9:55 PM 62.1 °F 51.8 °F 69% 29.68 in 10.0 mi SSE 10.4 mph - N/A   Mostly Cloudy
10:43 PM 64.4 °F 51.8 °F 64% 29.64 in 10.0 mi South 21.9 mph 31.1 mph N/A   Mostly Cloudy
10:55 PM 63.7 °F 52.9 °F 68% 29.63 in 10.0 mi South 20.7 mph 31.1 mph N/A   Mostly Cloudy
11:04 PM 64.4 °F 51.8 °F 64% 29.62 in 10.0 mi South 21.9 mph 33.4 mph N/A   Scattered Clouds
11:12 PM 64.4 °F 53.6 °F 68% 29.62 in 10.0 mi South 23.0 mph 33.4 mph N/A   Mostly Cloudy
11:55 PM 64.0 °F 53.4 °F 68% 29.59 in 10.0 mi South 19.6 mph 27.6 mph N/A   Overcast